Weather History for KFEP - July, 2014

Change the Weather History Date:

Thursday, July 3, 2014

  Actual Average Record
Temperature  
Mean Temperature 60 °F -  
Max Temperature 71 °F 83 °F 93 °F (1974)
Min Temperature 50 °F 61 °F 50 °F (2014)
Degree Days  
Heating Degree Days 4    
Growing Degree Days 10 (Base 50)    
Moisture  
Dew Point 51 °F    
Average Humidity 72    
Maximum Humidity 96    
Minimum Humidity 40    
Precipitation  
Precipitation 0.04 in - - ()
Sea Level Pressure  
Sea Level Pressure 30.16 in    
Wind  
Wind Speed 3 mph (NW)    
Max Wind Speed 12 mph    
Max Gust Speed 17 mph    
Visibility 10 miles    
Events      
Averages and records for this station are not official NWS values.
T = Trace of Precipitation, MM = Missing Value Source: NWS Daily Summary

Daily Weather History Graph

Daily Weather History Graph

Search for Another Location

Airport or City:

Trip Planner

Search our weather history database for the weather conditions in past years. The results will help you decide how hot, cold, wet, or windy it might be!

Date:

Astronomy

Jul. 03, 2014 Rise Set
Actual Time 5:26 AM CDT 8:38 PM CDT
Civil Twilight 4:52 AM CDT 9:12 PM CDT
Nautical Twilight 4:08 AM CDT 9:56 PM CDT
Astronomical Twilight 3:14 AM CDT 10:49 PM CDT
Moon 11:33 AM CDT (7/3) 11:52 PM CDT (7/3)
Length of Visible Light 16h 20m
Length of Day
15h 11m
Waxing Crescent, 33% of the Moon is Illuminated
Jul 3
Waxing Crescent
Jul 5
First Quarter
Jul 12
Full
Jul 18
Last Quarter
Jul 26
New

Hourly Weather History & Observations

Time (CDT) Temp. Dew Point Humidity Pressure Visibility Wind Dir Wind Speed Gust Speed Precip Events Conditions
12:15 AM 56.1 °F 54.3 °F 94% 30.08 in 10.0 mi Calm Calm - N/A   Overcast
12:35 AM 56.3 °F 54.5 °F 94% 30.07 in 10.0 mi Calm Calm - N/A   Overcast
12:55 AM 55.8 °F 54.1 °F 94% 30.08 in 10.0 mi West 3.5 mph - N/A   Overcast
1:15 AM 55.8 °F 54.1 °F 94% 30.07 in 10.0 mi West 4.6 mph - N/A   Mostly Cloudy
1:35 AM 55.8 °F 54.5 °F 96% 30.08 in 10.0 mi West 4.6 mph - N/A   Scattered Clouds
1:55 AM 55.8 °F 54.5 °F 96% 30.08 in 10.0 mi West 3.5 mph - N/A   Clear
2:15 AM 55.8 °F 54.5 °F 96% 30.08 in 10.0 mi Calm Calm - N/A   Clear
2:35 AM 53.2 °F 51.8 °F 95% 30.09 in 7.0 mi SW 3.5 mph - N/A   Clear
2:55 AM 53.2 °F 52.2 °F 96% 30.09 in 10.0 mi Calm Calm - N/A   Clear
3:15 AM 51.6 °F 50.5 °F 96% 30.09 in 7.0 mi Calm Calm - N/A   Clear
3:35 AM 50.9 °F 49.6 °F 95% 30.09 in 7.0 mi Calm Calm - N/A   Clear
3:55 AM 50.9 °F 49.6 °F 95% 30.09 in 7.0 mi Calm Calm - N/A   Clear
4:15 AM 50.9 °F 49.6 °F 95% 30.09 in 7.0 mi Calm Calm - N/A   Clear
4:35 AM 51.1 °F 50.0 °F 96% 30.10 in 10.0 mi West 3.5 mph - N/A   Mostly Cloudy
4:55 AM 52.0 °F 50.9 °F 96% 30.11 in 10.0 mi West 3.5 mph - N/A   Overcast
5:15 AM 53.2 °F 52.2 °F 96% 30.11 in 10.0 mi Calm Calm - N/A   Mostly Cloudy
5:35 AM 53.1 °F 51.8 °F 95% 30.11 in 10.0 mi Calm Calm - N/A   Mostly Cloudy
5:55 AM 51.1 °F 49.8 °F 95% 30.12 in 10.0 mi Calm Calm - N/A   Mostly Cloudy
6:15 AM 51.1 °F 49.6 °F 95% 30.13 in 10.0 mi Calm Calm - N/A   Scattered Clouds
6:35 AM 53.2 °F 52.2 °F 96% 30.14 in 10.0 mi Calm Calm - N/A   Scattered Clouds
7:00 AM 55.8 °F 54.1 °F 94% 30.14 in 10.0 mi West 3.5 mph - N/A   Scattered Clouds
7:15 AM 55.8 °F 54.0 °F 94% 30.14 in 10.0 mi WNW 3.5 mph - N/A   Clear
7:35 AM 55.8 °F 53.8 °F 93% 30.15 in 10.0 mi WNW 3.5 mph - N/A   Clear
7:55 AM 56.8 °F 54.7 °F 92% 30.15 in 10.0 mi Calm Calm - N/A   Clear
8:15 AM 58.3 °F 55.4 °F 90% 30.15 in 10.0 mi West 3.5 mph - N/A   Clear
8:35 AM 59.0 °F 55.4 °F 88% 30.15 in 10.0 mi Calm Calm - N/A   Clear
8:55 AM 60.8 °F 56.1 °F 85% 30.15 in 10.0 mi West 3.5 mph - N/A   Clear
9:15 AM 61.7 °F 56.3 °F 82% 30.15 in 10.0 mi West 4.6 mph - N/A   Clear
9:35 AM 63.5 °F 56.1 °F 77% 30.16 in 10.0 mi WNW 6.9 mph - N/A   Clear
9:55 AM 63.5 °F 54.3 °F 72% 30.16 in 10.0 mi NW 8.1 mph - N/A   Clear
10:15 AM 63.9 °F 54.1 °F 71% 30.17 in 10.0 mi North 8.1 mph - N/A   Clear
10:35 AM 64.4 °F 54.1 °F 69% 30.17 in 10.0 mi NNW 8.1 mph - N/A   Clear
10:55 AM 65.3 °F 50.9 °F 60% 30.18 in 10.0 mi NW 11.5 mph - N/A   Clear
11:15 AM 66.7 °F 46.8 °F 49% 30.18 in 10.0 mi NNW 8.1 mph - N/A   Clear
11:35 AM 68.5 °F 49.1 °F 50% 30.18 in 10.0 mi NNW 9.2 mph - N/A   Clear
11:55 AM 68.5 °F 45.5 °F 44% 30.19 in 10.0 mi NW 11.5 mph - N/A   Clear
12:15 PM 68.5 °F 45.1 °F 43% 30.19 in 10.0 mi NW 8.1 mph - N/A   Clear
12:35 PM 68.5 °F 43.3 °F 40% 30.19 in 10.0 mi North 8.1 mph - N/A   Clear
12:55 PM 68.7 °F 44.8 °F 42% 30.19 in 10.0 mi NW 11.5 mph 17.3 mph N/A   Clear
1:15 PM 69.8 °F 46.4 °F 43% 30.20 in 10.0 mi North 8.1 mph - N/A   Clear
1:35 PM 71.1 °F 46.2 °F 41% 30.20 in 10.0 mi NNW 6.9 mph - N/A   Clear
1:55 PM 71.1 °F 46.2 °F 41% 30.20 in 10.0 mi North 8.1 mph - N/A   Clear
2:15 PM 71.1 °F 45.7 °F 40% 30.20 in 10.0 mi NW 5.8 mph - N/A   Clear
2:35 PM 71.1 °F 47.5 °F 43% 30.19 in 10.0 mi NNE 9.2 mph - N/A   Clear
2:55 PM 71.1 °F 46.9 °F 42% 30.20 in 10.0 mi North 9.2 mph - N/A   Scattered Clouds
3:15 PM 71.1 °F 46.8 °F 42% 30.19 in 10.0 mi North 6.9 mph - N/A   Scattered Clouds
3:35 PM 71.1 °F 47.7 °F 43% 30.19 in 10.0 mi North 4.6 mph - N/A   Mostly Cloudy
3:55 PM 68.5 °F 47.7 °F 47% 30.19 in 10.0 mi NNE 3.5 mph - N/A   Mostly Cloudy
4:15 PM 71.1 °F 51.6 °F 50% 30.19 in 10.0 mi North 5.8 mph - N/A   Mostly Cloudy
4:35 PM 69.1 °F 48.4 °F 48% 30.19 in 10.0 mi NNW 3.5 mph - N/A   Scattered Clouds
4:55 PM 71.1 °F 47.1 °F 42% 30.19 in 10.0 mi NNW 5.8 mph - N/A   Scattered Clouds
5:15 PM 71.1 °F 49.5 °F 46% 30.19 in 10.0 mi NW 5.8 mph - N/A   Clear
5:35 PM 66.7 °F 50.9 °F 57% 30.19 in 10.0 mi Calm Calm - N/A   Clear
5:55 PM 66.2 °F 53.8 °F 64% 30.19 in 10.0 mi Calm Calm - N/A   Clear
6:15 PM 69.1 °F 49.5 °F 50% 30.19 in 10.0 mi Calm Calm - N/A   Clear
6:35 PM 68.4 °F 50.0 °F 52% 30.19 in 10.0 mi North 3.5 mph - N/A   Clear
6:55 PM 71.1 °F 50.4 °F 48% 30.19 in 10.0 mi Calm Calm - N/A   Mostly Cloudy
7:15 PM 71.1 °F 49.8 °F 47% 30.19 in 10.0 mi Calm Calm - N/A   Mostly Cloudy
7:35 PM 71.1 °F 51.6 °F 50% 30.20 in 10.0 mi Calm Calm - N/A   Scattered Clouds
7:55 PM 68.5 °F 52.2 °F 56% 30.20 in 10.0 mi Calm Calm - N/A   Clear
8:15 PM 66.2 °F 51.1 °F 58% 30.20 in 10.0 mi Calm Calm - N/A   Clear
8:35 PM 63.3 °F 51.4 °F 65% 30.21 in 10.0 mi Calm Calm - N/A   Clear
8:55 PM 60.8 °F 52.5 °F 74% 30.21 in 10.0 mi Calm Calm - N/A   Clear
9:15 PM 58.3 °F 53.6 °F 84% 30.22 in 10.0 mi Calm Calm - N/A   Clear
9:35 PM 55.8 °F 52.3 °F 88% 30.22 in 10.0 mi Calm Calm - N/A   Clear
9:55 PM 56.1 °F 52.2 °F 87% 30.22 in 10.0 mi WSW 3.5 mph - N/A   Clear
10:15 PM 56.3 °F 52.0 °F 85% 30.23 in 10.0 mi WSW 3.5 mph - N/A   Clear
10:35 PM 55.8 °F 52.0 °F 87% 30.23 in 10.0 mi Calm Calm - N/A   Clear
10:55 PM 55.8 °F 51.6 °F 86% 30.23 in 10.0 mi Calm Calm - N/A   Clear
11:15 PM 55.8 °F 51.8 °F 87% 30.23 in 10.0 mi Calm Calm - N/A   Clear
11:35 PM 53.2 °F 50.5 °F 91% 30.24 in 10.0 mi Calm Calm - N/A   Clear
11:55 PM 53.2 °F 50.9 °F 92% 30.24 in 10.0 mi Calm Calm - N/A   Clear